TimeMDT,TemperatureF,Dew PointF,Humidity,Sea Level PressureIn,VisibilityMPH,Wind Direction,Wind SpeedMPH,Gust SpeedMPH,PrecipitationIn,Events,Conditions,WindDirDegrees,DateUTC
12:53 AM,53.1,30.0,41,29.89,10.0,East,6.9,-,N/A,,Overcast,90,2013-05-06 06:53:00
1:53 AM,52.0,32.0,47,29.91,10.0,ESE,6.9,-,N/A,,Overcast,120,2013-05-06 07:53:00
2:53 AM,51.1,33.1,50,29.89,10.0,ENE,6.9,-,N/A,,Overcast,70,2013-05-06 08:53:00
3:53 AM,48.9,34.0,56,29.89,10.0,NE,9.2,-,N/A,,Overcast,50,2013-05-06 09:53:00
4:53 AM,48.9,34.0,56,29.90,10.0,NE,8.1,-,N/A,,Overcast,40,2013-05-06 10:53:00
5:53 AM,48.9,35.1,59,29.90,10.0,SE,6.9,-,N/A,,Overcast,130,2013-05-06 11:53:00
6:53 AM,45.0,39.9,82,29.91,10.0,ENE,12.7,-,0.05,,Mostly Cloudy,70,2013-05-06 12:53:00
7:53 AM,46.9,39.9,77,29.92,10.0,NE,16.1,-,N/A,,Overcast,40,2013-05-06 13:53:00
8:53 AM,48.0,37.0,66,29.95,10.0,SE,5.8,-,0.00,,Overcast,140,2013-05-06 14:53:00
9:53 AM,45.0,37.9,76,29.99,6.0,NNE,4.6,-,0.04,Rain,Light Rain,30,2013-05-06 15:53:00
10:53 AM,46.9,41.0,80,29.98,10.0,North,11.5,-,0.00,,Mostly Cloudy,360,2013-05-06 16:53:00
11:53 AM,48.9,39.9,71,29.97,10.0,NE,10.4,-,0.00,Rain,Light Rain,50,2013-05-06 17:53:00
12:53 PM,51.1,39.0,63,29.94,10.0,North,8.1,-,0.01,,Mostly Cloudy,360,2013-05-06 18:53:00
1:53 PM,45.0,39.9,82,29.98,6.0,SSW,12.7,-,0.01,Rain,Light Rain,200,2013-05-06 19:53:00
2:06 PM,44.6,39.2,81,30.09,6.0,SSW,12.7,20.7,0.01,Rain,Light Rain,200,2013-05-06 20:06:00
2:18 PM,42.8,41.0,93,30.10,2.5,SW,12.7,-,0.04,Rain,Rain,220,2013-05-06 20:18:00
2:24 PM,42.8,39.2,87,30.10,1.2,SSW,6.9,17.3,0.08,Rain,Rain,210,2013-05-06 20:24:00
2:32 PM,42.8,39.2,87,30.10,2.0,Calm,Calm,-,0.09,Rain,Rain,0,2013-05-06 20:32:00
2:40 PM,44.6,39.2,81,30.09,10.0,NW,4.6,-,0.09,Rain,Light Rain,310,2013-05-06 20:40:00
2:53 PM,44.1,39.9,85,30.00,10.0,NNW,3.5,-,0.09,,Overcast,330,2013-05-06 20:53:00
3:29 PM,46.4,42.8,87,30.09,10.0,West,6.9,-,0.01,Rain,Light Rain,260,2013-05-06 21:29:00
3:53 PM,46.0,43.0,89,29.99,10.0,NW,4.6,-,0.01,,Overcast,310,2013-05-06 21:53:00
4:53 PM,48.9,43.0,80,29.96,10.0,North,8.1,-,N/A,,Mostly Cloudy,10,2013-05-06 22:53:00
5:15 PM,48.2,42.8,82,30.07,10.0,North,6.9,-,N/A,,Mostly Cloudy,10,2013-05-06 23:15:00
5:30 PM,48.2,42.8,82,30.06,10.0,North,4.6,-,N/A,,Scattered Clouds,10,2013-05-06 23:30:00
5:53 PM,51.1,42.1,71,29.95,10.0,NNE,3.5,-,N/A,,Clear,20,2013-05-06 23:53:00
6:53 PM,51.1,39.9,66,29.96,10.0,Calm,Calm,-,N/A,,Clear,0,2013-05-07 00:53:00
7:53 PM,50.0,39.0,66,29.97,10.0,Calm,Calm,-,N/A,,Partly Cloudy,0,2013-05-07 01:53:00
8:53 PM,46.0,39.9,79,30.00,10.0,NE,5.8,-,N/A,,Clear,50,2013-05-07 02:53:00
9:53 PM,45.0,41.0,86,30.04,10.0,NNW,9.2,-,0.03,Rain,Light Rain,340,2013-05-07 03:53:00
10:53 PM,45.0,41.0,86,30.05,10.0,North,3.5,-,0.01,Rain,Light Rain,360,2013-05-07 04:53:00
11:53 PM,44.1,39.0,82,30.03,10.0,North,8.1,-,0.01,,Mostly Cloudy,360,2013-05-07 05:53:00